Location: Fort Wayne
(41.1310°N, 85.1290°W)
Time: 00:37:17
(UTC-04:00)

BREEZE-M DEB (TANK) - Visible Passes

Search period start: 03 September 2014 00:00
Search period end: 13 September 2014 00:00
Orbit: 278 x 13662 km, 49.6° (Epoch: 02 September)

Date Brightness Start Highest point End Pass type
(mag) Time Alt. Az. Time Alt. Az. Time Alt. Az.
03 Sep 9.3 00:00:00 20° WSW 23:59:45 20° WSW 00:29:01 10° SW visible
03 Sep 9.0 19:32:41 10° NW 20:21:27 64° WSW 22:10:02 10° S visible
04 Sep 9.2 21:16:32 10° NW 22:06:18 39° W 23:36:14 10° SSW visible
05 Sep 8.9 18:22:11 10° WNW 19:04:08 76° SW 21:00:20 10° SSE visible
05 Sep 9.7 23:11:44 10° WNW 23:43:07 16° W 00:27:05 10° WSW visible
06 Sep 9.1 20:04:03 10° NW 20:53:16 52° WSW 22:34:47 10° SSW visible
07 Sep 9.4 21:50:33 10° WNW 22:34:31 28° W 23:49:04 10° SW visible
08 Sep 9.1 18:52:49 10° NW 19:37:38 65° WSW 21:28:06 10° S visible
09 Sep 9.3 20:35:53 10° NW 21:23:16 40° WSW 22:55:05 10° SSW visible
10 Sep 9.8 22:28:51 10° WNW 23:01:12 17° W 23:48:50 10° WSW visible
11 Sep 9.2 19:23:31 10° NW 20:09:24 53° WSW 21:52:43 10° S visible
12 Sep 9.5 21:08:57 10° WNW 21:51:40 29° W 23:08:20 10° SW visible
